This is the latest recevied weather packets stored in our database for station/object K1WJY. If no packets are shown the sender has not sent any weather packets the latest 10 day(s).
| Time | Temp. | Humidity | Pressure | Rain* | Wind** | Luminosity | Snow |
|---|---|---|---|---|---|---|---|
| 1787439061 | 18.33° C | 99% | 1020.2 hPa | 4.32 mm | - | 3 W/m² | - |
| 1787438756 | 18.33° C | 99% | 1020.1 hPa | 4.83 mm | - | 6 W/m² | - |
| 1787438455 | 18.33° C | 99% | 1020.2 hPa | 1.78 mm | - | 6 W/m² | - |
| 1787438149 | 18.33° C | 99% | 1020.2 hPa | 1.27 mm | - | 6 W/m² | - |
| 1787437845 | 18.33° C | 99% | 1020.4 hPa | 7.87 mm | - | 7 W/m² | - |
| 1787437541 | 18.33° C | 99% | 1020.6 hPa | 9.65 mm | - | 11 W/m² | - |
| 1787437238 | 18.33° C | 99% | 1020.6 hPa | 7.87 mm | - | 12 W/m² | - |
| 1787436934 | 18.33° C | 99% | 1020.7 hPa | 7.11 mm | - | 12 W/m² | - |
| 1787436631 | 18.89° C | 99% | 1020.6 hPa | 8.89 mm | - | 13 W/m² | - |
| 1787436330 | 18.89° C | 99% | 1020.7 hPa | 6.1 mm | - | 20 W/m² | - |
| 1787436026 | 18.89° C | 99% | 1020.7 hPa | 4.83 mm | - | 11 W/m² | - |
| 1787435720 | 18.89° C | 99% | 1020.8 hPa | 10.67 mm | - | 6 W/m² | - |
| 1787435417 | 18.89° C | 98% | 1020.6 hPa | 13.21 mm | - | 6 W/m² | - |
| 1787435114 | 19.44° C | 96% | 1020.8 hPa | 9.65 mm | - | 10 W/m² | - |
| 1787434809 | 19.44° C | 94% | 1020.9 hPa | 3.56 mm | - | 17 W/m² | - |
| 1787434505 | 19.44° C | 93% | 1021.1 hPa | 0 mm | - | 20 W/m² | - |
| 1787434200 | 20° C | 91% | 1020.9 hPa | 0 mm | - | 20 W/m² | - |
| 1787433897 | 20° C | 90% | 1020.9 hPa | 0 mm | - | 30 W/m² | - |
| 1787433596 | 20° C | 89% | 1021 hPa | 0 mm | - | 38 W/m² | - |
| 1787433292 | 20° C | 89% | 1021 hPa | 0 mm | - | 52 W/m² | - |
| 1787432989 | 20° C | 89% | 1020.9 hPa | 0 mm | - | 69 W/m² | - |
| 1787432684 | 20° C | 90% | 1020.8 hPa | 0 mm | - | 70 W/m² | - |
| 1787432383 | 20° C | 90% | 1021.1 hPa | 0 mm | - | 65 W/m² | - |
| 1787432079 | 20° C | 90% | 1021.2 hPa | 0 mm | - | 51 W/m² | - |
| 1787431778 | 20° C | 90% | 1021.3 hPa | 0 mm | - | 43 W/m² | - |
* Rain latest hour (hover to see other rain measurements)
** Current wind speed in m/s (hover to see current wind gust speed)